Location: Montr�al
(45.5000°N, 73.5830°W)
Time: 05:22:15
(UTC-04:00)

ISS - Visible Passes

Search period start: 23 October 2014 00:00
Search period end: 02 November 2014 00:00
Orbit: 413 x 416 km, 51.6° (Epoch: 22 October)

Date Brightness Start Highest point End Pass type
(mag) Time Alt. Az. Time Alt. Az. Time Alt. Az.
23 Oct -3.2 18:52:22 10° WNW 18:55:42 64° NNE 18:58:03 18° ESE visible
23 Oct -0.5 20:29:30 10° W 20:30:55 18° WSW 20:30:55 18° WSW visible
24 Oct -1.9 19:40:03 10° WNW 19:43:09 35° SW 19:44:05 29° S visible
25 Oct -2.8 18:50:45 10° WNW 18:54:03 59° SSW 18:57:20 10° SE visible
26 Oct -0.4 19:39:07 10° W 19:41:08 15° SW 19:43:09 10° S visible
27 Oct -1.0 18:49:17 10° W 18:52:04 25° SW 18:54:50 10° SSE visible
29 Oct 0.3 18:49:17 10° WSW 18:49:44 10° SW 18:50:12 10° SW visible
